Time,TemperatureF,DewpointF,PressureIn,WindDirection,WindDirectionDegrees,WindSpeedMPH,WindSpeedGustMPH,Humidity,HourlyPrecipIn,Conditions,Clouds,dailyrainin,SolarRadiationWatts/m^2,SoftwareType,DateUTC
2013-07-22 00:01:00,66.1,48.5,29.86,North,-999,7.0,7.0,53,0.00,,,0.00,0.00,VWS V14.01,2013-07-22 06:01:00,
2013-07-22 00:06:00,63.0,48.0,29.86,North,-999,5.0,7.0,58,0.00,,,0.00,0.00,VWS V14.01,2013-07-22 06:06:00,
2013-07-22 00:11:00,61.1,48.8,29.86,North,-999,5.0,6.0,64,0.00,,,0.00,0.00,VWS V14.01,2013-07-22 06:11:00,
2013-07-22 00:16:00,60.8,47.3,29.86,North,-999,5.0,7.0,61,0.00,,,0.00,0.00,VWS V14.01,2013-07-22 06:16:00,
2013-07-22 00:21:00,61.5,47.1,29.86,North,-999,5.0,6.0,59,0.00,,,0.00,0.00,VWS V14.01,2013-07-22 06:21:00,
2013-07-22 00:26:00,61.2,48.1,29.86,North,-999,2.0,7.0,62,0.00,,,0.00,0.00,VWS V14.01,2013-07-22 06:26:00,
2013-07-22 00:31:00,61.2,46.3,29.86,North,-999,7.0,8.0,58,0.00,,,0.00,0.00,VWS V14.01,2013-07-22 06:31:00,
2013-07-22 00:36:00,61.9,47.0,29.86,North,-999,6.0,8.0,58,0.00,,,0.00,0.00,VWS V14.01,2013-07-22 06:36:00,
2013-07-22 00:41:00,60.9,46.5,29.86,North,-999,7.0,7.0,59,0.00,,,0.00,0.00,VWS V14.01,2013-07-22 06:41:00,
2013-07-22 00:46:00,60.7,47.2,29.86,North,-999,5.0,7.0,61,0.00,,,0.00,0.00,VWS V14.01,2013-07-22 06:46:00,
2013-07-22 00:51:00,59.8,47.2,29.86,North,-999,7.0,7.0,63,0.00,,,0.00,0.00,VWS V14.01,2013-07-22 06:51:00,
2013-07-22 00:56:00,59.5,47.3,29.86,North,-999,7.0,7.0,64,0.00,,,0.00,0.00,VWS V14.01,2013-07-22 06:56:00,
2013-07-22 01:01:00,59.6,47.4,29.86,North,-999,6.0,9.0,64,0.00,,,0.00,0.00,VWS V14.01,2013-07-22 07:01:00,
2013-07-22 01:06:00,59.7,47.1,29.86,North,-999,6.0,9.0,63,0.00,,,0.00,0.00,VWS V14.01,2013-07-22 07:06:00,
2013-07-22 01:11:00,59.6,47.4,29.86,North,-999,5.0,7.0,64,0.00,,,0.00,0.00,VWS V14.01,2013-07-22 07:11:00,
2013-07-22 01:16:00,59.2,47.5,29.86,North,-999,6.0,7.0,65,0.00,,,0.00,0.00,VWS V14.01,2013-07-22 07:16:00,
2013-07-22 01:21:00,59.3,47.5,29.86,North,-999,3.0,6.0,65,0.00,,,0.00,0.00,VWS V14.01,2013-07-22 07:21:00,
2013-07-22 01:26:00,59.2,47.9,29.86,North,-999,4.0,7.0,66,0.00,,,0.00,0.00,VWS V14.01,2013-07-22 07:26:00,
2013-07-22 01:30:00,58.9,47.2,29.86,North,-999,6.0,7.0,65,0.00,,,0.00,0.00,VWS V14.01,2013-07-22 07:30:00,
2013-07-22 01:35:00,58.6,47.3,29.86,North,-999,7.0,9.0,66,0.00,,,0.00,0.00,VWS V14.01,2013-07-22 07:35:00,
2013-07-22 01:40:00,57.8,47.3,29.86,North,-999,9.0,11.0,68,0.00,,,0.00,0.00,VWS V14.01,2013-07-22 07:40:00,
2013-07-22 01:45:00,56.9,47.6,29.86,North,-999,7.0,11.0,71,0.00,,,0.00,0.00,VWS V14.01,2013-07-22 07:45:00,
2013-07-22 01:50:00,56.4,47.5,29.86,North,-999,9.0,9.0,72,0.00,,,0.00,0.00,VWS V14.01,2013-07-22 07:50:00,
2013-07-22 01:55:00,56.9,47.6,29.86,North,-999,5.0,9.0,71,0.00,,,0.00,0.00,VWS V14.01,2013-07-22 07:55:00,
2013-07-22 02:00:00,57.4,47.7,29.86,North,-999,5.0,8.0,70,0.00,,,0.00,0.00,VWS V14.01,2013-07-22 08:00:00,
2013-07-22 02:05:00,57.4,47.7,29.85,North,-999,6.0,8.0,70,0.00,,,0.00,0.00,VWS V14.01,2013-07-22 08:05:00,
2013-07-22 02:10:00,57.3,47.2,29.85,North,-999,7.0,9.0,69,0.00,,,0.00,0.00,VWS V14.01,2013-07-22 08:10:00,
2013-07-22 02:15:00,58.0,46.7,29.85,North,-999,7.0,9.0,66,0.00,,,0.00,0.00,VWS V14.01,2013-07-22 08:15:00,
2013-07-22 02:20:00,58.2,46.9,29.85,North,-999,11.0,11.0,66,0.00,,,0.00,0.00,VWS V14.01,2013-07-22 08:20:00,
2013-07-22 02:25:00,58.7,46.2,29.86,North,-999,10.0,13.0,63,0.00,,,0.00,0.00,VWS V14.01,2013-07-22 08:25:00,
2013-07-22 02:30:00,59.9,45.5,29.86,North,-999,11.0,13.0,59,0.00,,,0.00,0.00,VWS V14.01,2013-07-22 08:30:00,
2013-07-22 02:35:00,60.3,45.5,29.86,North,-999,10.0,13.0,58,0.00,,,0.00,0.00,VWS V14.01,2013-07-22 08:35:00,
2013-07-22 02:40:00,60.3,45.0,29.86,North,-999,12.0,14.0,57,0.00,,,0.00,0.00,VWS V14.01,2013-07-22 08:40:00,
2013-07-22 02:45:00,60.5,44.7,29.86,North,-999,9.0,14.0,56,0.00,,,0.00,0.00,VWS V14.01,2013-07-22 08:45:00,
2013-07-22 02:50:00,60.3,45.0,29.86,North,-999,10.0,12.0,57,0.00,,,0.00,0.00,VWS V14.01,2013-07-22 08:50:00,
2013-07-22 02:55:00,60.2,44.5,29.86,North,-999,10.0,13.0,56,0.00,,,0.00,0.00,VWS V14.01,2013-07-22 08:55:00,
2013-07-22 03:00:00,60.2,44.5,29.86,North,-999,11.0,13.0,56,0.00,,,0.00,0.00,VWS V14.01,2013-07-22 09:00:00,
2013-07-22 03:05:00,60.7,44.0,29.86,North,-999,10.0,14.0,54,0.00,,,0.00,0.00,VWS V14.01,2013-07-22 09:05:00,
2013-07-22 03:10:00,60.8,44.1,29.85,North,-999,7.0,10.0,54,0.00,,,0.00,0.00,VWS V14.01,2013-07-22 09:10:00,
2013-07-22 03:15:00,60.5,43.8,29.85,North,-999,5.0,10.0,54,0.00,,,0.00,0.00,VWS V14.01,2013-07-22 09:15:00,
2013-07-22 03:20:00,60.3,44.6,29.86,North,-999,5.0,7.0,56,0.00,,,0.00,0.00,VWS V14.01,2013-07-22 09:20:00,
2013-07-22 03:25:00,59.6,43.9,29.86,North,-999,5.0,7.0,56,0.00,,,0.00,0.00,VWS V14.01,2013-07-22 09:25:00,
2013-07-22 03:30:00,59.1,43.9,29.85,North,-999,6.0,9.0,57,0.00,,,0.00,0.00,VWS V14.01,2013-07-22 09:30:00,
2013-07-22 03:35:00,59.3,43.6,29.85,North,-999,7.0,9.0,56,0.00,,,0.00,0.00,VWS V14.01,2013-07-22 09:35:00,
2013-07-22 03:40:00,58.9,44.2,29.85,North,-999,6.0,9.0,58,0.00,,,0.00,0.00,VWS V14.01,2013-07-22 09:40:00,
2013-07-22 03:45:00,58.2,44.0,29.85,North,-999,5.0,9.0,59,0.00,,,0.00,0.00,VWS V14.01,2013-07-22 09:45:00,
2013-07-22 03:50:00,58.1,43.9,29.85,North,-999,6.0,7.0,59,0.00,,,0.00,0.00,VWS V14.01,2013-07-22 09:50:00,
2013-07-22 03:55:00,58.1,43.9,29.85,North,-999,6.0,7.0,59,0.00,,,0.00,0.00,VWS V14.01,2013-07-22 09:55:00,
2013-07-22 04:00:00,58.3,43.6,29.85,North,-999,5.0,5.0,58,0.00,,,0.00,0.00,VWS V14.01,2013-07-22 10:00:00,
2013-07-22 04:05:00,58.3,43.6,29.85,North,-999,6.0,7.0,58,0.00,,,0.00,0.00,VWS V14.01,2013-07-22 10:05:00,
2013-07-22 04:10:00,58.4,43.2,29.85,North,-999,7.0,9.0,57,0.00,,,0.00,0.00,VWS V14.01,2013-07-22 10:10:00,
2013-07-22 04:15:00,58.6,43.0,29.85,North,-999,6.0,9.0,56,0.00,,,0.00,0.00,VWS V14.01,2013-07-22 10:15:00,
2013-07-22 04:20:00,59.7,42.6,29.85,North,-999,7.0,9.0,53,0.00,,,0.00,0.00,VWS V14.01,2013-07-22 10:20:00,
2013-07-22 04:25:00,60.5,41.8,29.85,North,-999,6.0,9.0,50,0.00,,,0.00,0.00,VWS V14.01,2013-07-22 10:25:00,
2013-07-22 04:30:00,60.7,42.0,29.85,North,-999,5.0,8.0,50,0.00,,,0.00,0.00,VWS V14.01,2013-07-22 10:30:00,
2013-07-22 04:35:00,60.4,42.7,29.85,North,-999,4.0,8.0,52,0.00,,,0.00,0.00,VWS V14.01,2013-07-22 10:35:00,
2013-07-22 04:40:00,59.2,43.1,29.85,North,-999,5.0,6.0,55,0.00,,,0.00,0.00,VWS V14.01,2013-07-22 10:40:00,
2013-07-22 04:45:00,58.6,43.0,29.86,North,-999,0.0,6.0,56,0.00,,,0.00,0.00,VWS V14.01,2013-07-22 10:45:00,
2013-07-22 04:50:00,58.8,42.2,29.86,North,-999,5.0,7.0,54,0.00,,,0.00,0.00,VWS V14.01,2013-07-22 10:50:00,
2013-07-22 04:55:00,59.4,41.8,29.86,North,-999,0.0,7.0,52,0.00,,,0.00,0.00,VWS V14.01,2013-07-22 10:55:00,
2013-07-22 05:00:00,59.7,41.6,29.86,North,-999,0.0,0.0,51,0.00,,,0.00,0.00,VWS V14.01,2013-07-22 11:00:00,
2013-07-22 05:05:00,59.7,42.6,29.86,North,-999,0.0,0.0,53,0.00,,,0.00,0.00,VWS V14.01,2013-07-22 11:05:00,
2013-07-22 05:10:00,59.6,42.5,29.86,North,-999,0.0,0.0,53,0.00,,,0.00,0.00,VWS V14.01,2013-07-22 11:10:00,
2013-07-22 05:15:00,59.4,43.2,29.86,North,-999,0.0,0.0,55,0.00,,,0.00,0.00,VWS V14.01,2013-07-22 11:15:00,
2013-07-22 05:20:00,58.9,43.7,29.86,North,-999,0.0,0.0,57,0.00,,,0.00,0.00,VWS V14.01,2013-07-22 11:20:00,
2013-07-22 05:25:00,58.5,43.3,29.86,North,-999,0.0,0.0,57,0.00,,,0.00,0.00,VWS V14.01,2013-07-22 11:25:00,
2013-07-22 05:30:00,58.1,43.9,29.86,North,-999,0.0,0.0,59,0.00,,,0.00,0.00,VWS V14.01,2013-07-22 11:30:00,
2013-07-22 05:35:00,58.1,43.9,29.86,North,-999,0.0,0.0,59,0.00,,,0.00,0.00,VWS V14.01,2013-07-22 11:35:00,
2013-07-22 05:40:00,57.9,43.2,29.86,North,-999,0.0,0.0,58,0.00,,,0.00,0.00,VWS V14.01,2013-07-22 11:40:00,
2013-07-22 05:45:00,57.6,43.4,29.86,North,-999,0.0,0.0,59,0.00,,,0.00,0.00,VWS V14.01,2013-07-22 11:45:00,
2013-07-22 05:50:00,57.4,42.3,29.86,North,-999,0.0,0.0,57,0.00,,,0.00,0.00,VWS V14.01,2013-07-22 11:50:00,
2013-07-22 05:55:00,57.5,42.8,29.86,North,-999,0.0,0.0,58,0.00,,,0.00,5.00,VWS V14.01,2013-07-22 11:55:00,
2013-07-22 06:00:00,56.8,44.3,29.86,North,-999,0.0,0.0,63,0.00,,,0.00,7.00,VWS V14.01,2013-07-22 12:00:00,
2013-07-22 06:05:00,56.1,42.8,29.86,North,-999,0.0,0.0,61,0.00,,,0.00,11.00,VWS V14.01,2013-07-22 12:05:00,
2013-07-22 06:10:00,55.0,43.9,29.86,North,-999,0.0,0.0,66,0.00,,,0.00,12.00,VWS V14.01,2013-07-22 12:10:00,
2013-07-22 06:15:00,54.5,43.4,29.86,North,-999,0.0,0.0,66,0.00,,,0.00,16.00,VWS V14.01,2013-07-22 12:15:00,
2013-07-22 06:20:00,54.9,43.0,29.86,North,-999,4.0,5.0,64,0.00,,,0.00,18.00,VWS V14.01,2013-07-22 12:20:00,
2013-07-22 06:25:00,55.8,43.0,29.86,North,-999,4.0,5.0,62,0.00,,,0.00,19.00,VWS V14.01,2013-07-22 12:25:00,
2013-07-22 06:30:00,56.2,44.6,29.86,North,-999,4.0,4.0,65,0.00,,,0.00,23.00,VWS V14.01,2013-07-22 12:30:00,
2013-07-22 06:35:00,55.8,44.6,29.87,North,-999,0.0,5.0,66,0.00,,,0.00,25.00,VWS V14.01,2013-07-22 12:35:00,
2013-07-22 06:40:00,55.4,43.8,29.87,North,-999,4.0,5.0,65,0.00,,,0.00,26.00,VWS V14.01,2013-07-22 12:40:00,
2013-07-22 06:45:00,56.2,44.2,29.86,North,-999,4.0,5.0,64,0.00,,,0.00,28.00,VWS V14.01,2013-07-22 12:45:00,
2013-07-22 06:50:00,56.9,43.2,29.86,North,-999,0.0,0.0,60,0.00,,,0.00,30.00,VWS V14.01,2013-07-22 12:50:00,
2013-07-22 06:55:00,57.5,44.2,29.87,North,-999,0.0,0.0,61,0.00,,,0.00,32.00,VWS V14.01,2013-07-22 12:55:00,
2013-07-22 07:00:00,57.8,44.0,29.87,North,-999,0.0,0.0,60,0.00,,,0.00,33.00,VWS V14.01,2013-07-22 13:00:00,
2013-07-22 07:05:00,58.0,45.9,29.87,North,-999,0.0,0.0,64,0.00,,,0.00,35.00,VWS V14.01,2013-07-22 13:05:00,
2013-07-22 07:10:00,58.3,45.8,29.87,North,-999,0.0,0.0,63,0.00,,,0.00,35.00,VWS V14.01,2013-07-22 13:10:00,
2013-07-22 07:15:00,58.7,47.0,29.87,North,-999,0.0,1.0,65,0.00,,,0.00,39.00,VWS V14.01,2013-07-22 13:15:00,
2013-07-22 07:20:00,59.3,47.5,29.87,North,-999,0.0,0.0,65,0.00,,,0.00,44.00,VWS V14.01,2013-07-22 13:20:00,
2013-07-22 07:25:00,60.0,46.1,29.86,North,-999,0.0,0.0,60,0.00,,,0.00,53.00,VWS V14.01,2013-07-22 13:25:00,
2013-07-22 07:30:00,60.6,48.0,29.86,North,-999,0.0,0.0,63,0.00,,,0.00,69.00,VWS V14.01,2013-07-22 13:30:00,
2013-07-22 07:35:00,61.8,47.8,29.87,North,-999,2.0,4.0,60,0.00,,,0.00,97.00,VWS V14.01,2013-07-22 13:35:00,
2013-07-22 07:40:00,62.6,49.0,29.87,North,-999,5.0,5.0,61,0.00,,,0.00,137.00,VWS V14.01,2013-07-22 13:40:00,
2013-07-22 07:45:00,63.1,47.6,29.87,North,-999,6.0,6.0,57,0.00,,,0.00,185.00,VWS V14.01,2013-07-22 13:45:00,
2013-07-22 07:50:00,63.7,48.2,29.87,North,-999,5.0,6.0,57,0.00,,,0.00,234.00,VWS V14.01,2013-07-22 13:50:00,
2013-07-22 07:55:00,64.1,49.0,29.87,North,-999,4.0,6.0,58,0.00,,,0.00,274.00,VWS V14.01,2013-07-22 13:55:00,
2013-07-22 08:00:00,64.9,48.4,29.87,North,-999,4.0,6.0,55,0.00,,,0.00,295.00,VWS V14.01,2013-07-22 14:00:00,
2013-07-22 08:05:00,65.8,48.2,29.87,North,-999,5.0,6.0,53,0.00,,,0.00,313.00,VWS V14.01,2013-07-22 14:05:00,
2013-07-22 08:10:00,66.4,51.2,29.87,North,-999,1.0,4.0,58,0.00,,,0.00,329.00,VWS V14.01,2013-07-22 14:10:00,
2013-07-22 08:14:00,66.9,49.2,29.87,North,-999,0.0,4.0,53,0.00,,,0.00,345.00,VWS V14.01,2013-07-22 14:14:00,
2013-07-22 08:19:00,67.7,50.0,29.87,North,-999,0.0,0.0,53,0.00,,,0.00,359.00,VWS V14.01,2013-07-22 14:19:00,
2013-07-22 08:24:00,68.2,50.9,29.87,North,-999,0.0,4.0,54,0.00,,,0.00,376.00,VWS V14.01,2013-07-22 14:24:00,
2013-07-22 08:29:00,68.6,50.8,29.87,North,-999,0.0,0.0,53,0.00,,,0.00,390.00,VWS V14.01,2013-07-22 14:29:00,
2013-07-22 08:34:00,69.0,48.0,29.87,North,-999,0.0,0.0,47,0.00,,,0.00,404.00,VWS V14.01,2013-07-22 14:34:00,
2013-07-22 08:39:00,69.4,48.9,29.87,North,-999,0.0,4.0,48,0.00,,,0.00,422.00,VWS V14.01,2013-07-22 14:39:00,
2013-07-22 08:44:00,69.8,46.3,29.87,North,-999,0.0,4.0,43,0.00,,,0.00,436.00,VWS V14.01,2013-07-22 14:44:00,
2013-07-22 08:49:00,70.3,48.0,29.86,North,-999,0.0,0.0,45,0.00,,,0.00,454.00,VWS V14.01,2013-07-22 14:49:00,
2013-07-22 08:54:00,70.7,45.9,29.87,North,-999,0.0,0.0,41,0.00,,,0.00,469.00,VWS V14.01,2013-07-22 14:54:00,
2013-07-22 08:59:00,71.0,47.4,29.87,North,-999,4.0,4.0,43,0.00,,,0.00,485.00,VWS V14.01,2013-07-22 14:59:00,
2013-07-22 09:04:00,71.0,48.6,29.87,North,-999,4.0,5.0,45,0.00,,,0.00,497.00,VWS V14.01,2013-07-22 15:04:00,
2013-07-22 09:09:00,71.1,48.1,29.87,North,-999,1.0,4.0,44,0.00,,,0.00,512.00,VWS V14.01,2013-07-22 15:09:00,
2013-07-22 09:14:00,71.4,46.5,29.87,North,-999,0.0,4.0,41,0.00,,,0.00,527.00,VWS V14.01,2013-07-22 15:14:00,
2013-07-22 09:19:00,72.0,48.9,29.87,North,-999,0.0,0.0,44,0.00,,,0.00,543.00,VWS V14.01,2013-07-22 15:19:00,
2013-07-22 09:24:00,72.1,49.0,29.86,North,-999,0.0,0.0,44,0.00,,,0.00,559.00,VWS V14.01,2013-07-22 15:24:00,
2013-07-22 09:29:00,72.2,49.1,29.86,North,-999,0.0,0.0,44,0.00,,,0.00,573.00,VWS V14.01,2013-07-22 15:29:00,
2013-07-22 09:34:00,72.6,48.2,29.86,North,-999,0.0,0.0,42,0.00,,,0.00,585.00,VWS V14.01,2013-07-22 15:34:00,
2013-07-22 09:39:00,73.1,46.7,29.86,North,-999,0.0,0.0,39,0.00,,,0.00,599.00,VWS V14.01,2013-07-22 15:39:00,
2013-07-22 09:44:00,73.6,46.5,29.86,North,-999,0.0,0.0,38,0.00,,,0.00,613.00,VWS V14.01,2013-07-22 15:44:00,
2013-07-22 09:49:00,74.8,48.2,29.86,North,-999,0.0,0.0,39,0.00,,,0.00,629.00,VWS V14.01,2013-07-22 15:49:00,
2013-07-22 09:54:00,75.9,47.1,29.86,North,-999,0.0,0.0,36,0.00,,,0.00,643.00,VWS V14.01,2013-07-22 15:54:00,
2013-07-22 09:59:00,76.0,47.2,29.86,North,-999,3.0,5.0,36,0.00,,,0.00,654.00,VWS V14.01,2013-07-22 15:59:00,
2013-07-22 10:04:00,75.6,47.5,29.86,North,-999,0.0,5.0,37,0.00,,,0.00,663.00,VWS V14.01,2013-07-22 16:04:00,
2013-07-22 10:09:00,76.0,48.6,29.86,North,-999,0.0,0.0,38,0.00,,,0.00,677.00,VWS V14.01,2013-07-22 16:09:00,
2013-07-22 10:14:00,76.5,49.0,29.86,North,-999,0.0,4.0,38,0.00,,,0.00,689.00,VWS V14.01,2013-07-22 16:14:00,
2013-07-22 10:19:00,77.0,48.8,29.86,North,-999,2.0,3.0,37,0.00,,,0.00,701.00,VWS V14.01,2013-07-22 16:19:00,
2013-07-22 10:24:00,76.7,48.5,29.86,North,-999,1.0,9.0,37,0.00,,,0.00,714.00,VWS V14.01,2013-07-22 16:24:00,
2013-07-22 10:29:00,77.1,49.6,29.85,North,-999,0.0,0.0,38,0.00,,,0.00,726.00,VWS V14.01,2013-07-22 16:29:00,
2013-07-22 10:34:00,77.6,50.0,29.85,North,-999,1.0,4.0,38,0.00,,,0.00,737.00,VWS V14.01,2013-07-22 16:34:00,
2013-07-22 10:39:00,77.4,52.5,29.85,North,-999,3.0,4.0,42,0.00,,,0.00,747.00,VWS V14.01,2013-07-22 16:39:00,
2013-07-22 10:44:00,77.0,51.5,29.85,North,-999,3.0,4.0,41,0.00,,,0.00,759.00,VWS V14.01,2013-07-22 16:44:00,
2013-07-22 10:49:00,77.7,47.9,29.85,North,-999,0.0,0.0,35,0.00,,,0.00,772.00,VWS V14.01,2013-07-22 16:49:00,
2013-07-22 10:54:00,78.8,46.5,29.85,North,-999,4.0,6.0,32,0.00,,,0.00,784.00,VWS V14.01,2013-07-22 16:54:00,
2013-07-22 10:59:00,79.5,47.1,29.85,North,-999,3.0,9.0,32,0.00,,,0.00,795.00,VWS V14.01,2013-07-22 16:59:00,
2013-07-22 11:04:00,80.5,47.1,29.85,North,-999,5.0,9.0,31,0.00,,,0.00,807.00,VWS V14.01,2013-07-22 17:04:00,
2013-07-22 11:09:00,80.7,46.4,29.85,North,-999,1.0,2.0,30,0.00,,,0.00,816.00,VWS V14.01,2013-07-22 17:09:00,
2013-07-22 11:14:00,80.6,47.2,29.85,North,-999,2.0,6.0,31,0.00,,,0.00,826.00,VWS V14.01,2013-07-22 17:14:00,
2013-07-22 11:19:00,81.1,49.3,29.85,North,-999,3.0,7.0,33,0.00,,,0.00,833.00,VWS V14.01,2013-07-22 17:19:00,
2013-07-22 11:24:00,81.4,47.0,29.84,North,-999,3.0,7.0,30,0.00,,,0.00,847.00,VWS V14.01,2013-07-22 17:24:00,
2013-07-22 11:29:00,81.6,43.4,29.85,North,-999,4.0,6.0,26,0.00,,,0.00,856.00,VWS V14.01,2013-07-22 17:29:00,
2013-07-22 11:34:00,81.8,42.6,29.84,North,-999,4.0,6.0,25,0.00,,,0.00,867.00,VWS V14.01,2013-07-22 17:34:00,
2013-07-22 11:39:00,82.1,44.8,29.84,North,-999,3.0,4.0,27,0.00,,,0.00,870.00,VWS V14.01,2013-07-22 17:39:00,
2013-07-22 11:44:00,83.0,46.6,29.84,North,-999,0.0,4.0,28,0.00,,,0.00,881.00,VWS V14.01,2013-07-22 17:44:00,
2013-07-22 11:49:00,83.4,45.0,29.84,North,-999,0.0,1.0,26,0.00,,,0.00,886.00,VWS V14.01,2013-07-22 17:49:00,
2013-07-22 11:54:00,83.6,48.0,29.84,North,-999,0.0,2.0,29,0.00,,,0.00,891.00,VWS V14.01,2013-07-22 17:54:00,
2013-07-22 11:59:00,83.4,46.9,29.84,North,-999,2.0,2.0,28,0.00,,,0.00,896.00,VWS V14.01,2013-07-22 17:59:00,
2013-07-22 12:04:00,83.3,47.8,29.84,North,-999,0.0,4.0,29,0.00,,,0.00,900.00,VWS V14.01,2013-07-22 18:04:00,
2013-07-22 12:09:00,83.1,46.7,29.84,North,-999,4.0,7.0,28,0.00,,,0.00,905.00,VWS V14.01,2013-07-22 18:09:00,
2013-07-22 12:14:00,83.1,45.7,29.84,North,-999,9.0,10.0,27,0.00,,,0.00,911.00,VWS V14.01,2013-07-22 18:14:00,
2013-07-22 12:19:00,83.0,46.6,29.84,North,-999,3.0,7.0,28,0.00,,,0.00,914.00,VWS V14.01,2013-07-22 18:19:00,
2013-07-22 12:25:00,83.5,46.0,29.83,North,-999,6.0,7.0,27,0.00,,,0.00,919.00,VWS V14.01,2013-07-22 18:25:00,
2013-07-22 12:30:00,83.2,44.8,29.83,North,-999,4.0,7.0,26,0.00,,,0.00,926.00,VWS V14.01,2013-07-22 18:30:00,
2013-07-22 12:35:00,83.1,45.7,29.83,North,-999,5.0,11.0,27,0.00,,,0.00,928.00,VWS V14.01,2013-07-22 18:35:00,
2013-07-22 12:40:00,83.4,43.9,29.83,North,-999,0.0,5.0,25,0.00,,,0.00,932.00,VWS V14.01,2013-07-22 18:40:00,
2013-07-22 12:45:00,83.9,42.2,29.83,North,-999,3.0,7.0,23,0.00,,,0.00,940.00,VWS V14.01,2013-07-22 18:45:00,
2013-07-22 12:50:00,84.3,41.4,29.83,North,-999,4.0,6.0,22,0.00,,,0.00,942.00,VWS V14.01,2013-07-22 18:50:00,
2013-07-22 12:55:00,84.2,42.4,29.83,North,-999,0.0,7.0,23,0.00,,,0.00,939.00,VWS V14.01,2013-07-22 18:55:00,
2013-07-22 13:00:00,84.6,41.6,29.83,North,-999,4.0,4.0,22,0.00,,,0.00,942.00,VWS V14.01,2013-07-22 19:00:00,
2013-07-22 13:05:00,84.9,41.9,29.83,North,-999,0.0,7.0,22,0.00,,,0.00,946.00,VWS V14.01,2013-07-22 19:05:00,
2013-07-22 13:10:00,85.5,42.3,29.83,North,-999,0.0,5.0,22,0.00,,,0.00,947.00,VWS V14.01,2013-07-22 19:10:00,
2013-07-22 13:15:00,86.1,42.8,29.82,North,-999,3.0,5.0,22,0.00,,,0.00,947.00,VWS V14.01,2013-07-22 19:15:00,
2013-07-22 13:20:00,86.4,41.9,29.83,North,-999,0.0,6.0,21,0.00,,,0.00,946.00,VWS V14.01,2013-07-22 19:20:00,
2013-07-22 13:25:00,86.2,41.7,29.83,North,-999,2.0,8.0,21,0.00,,,0.00,949.00,VWS V14.01,2013-07-22 19:25:00,
2013-07-22 13:30:00,86.2,42.9,29.82,North,-999,0.0,6.0,22,0.00,,,0.00,947.00,VWS V14.01,2013-07-22 19:30:00,
2013-07-22 13:35:00,86.6,43.3,29.82,North,-999,0.0,6.0,22,0.00,,,0.00,947.00,VWS V14.01,2013-07-22 19:35:00,
2013-07-22 13:41:00,87.4,42.7,29.82,North,-999,0.0,9.0,21,0.00,,,0.00,947.00,VWS V14.01,2013-07-22 19:41:00,
2013-07-22 13:46:00,87.6,42.9,29.82,North,-999,4.0,9.0,21,0.00,,,0.00,949.00,VWS V14.01,2013-07-22 19:46:00,
2013-07-22 13:51:00,88.4,44.8,29.82,North,-999,0.0,1.0,22,0.00,,,0.00,947.00,VWS V14.01,2013-07-22 19:51:00,
2013-07-22 13:56:00,88.9,42.7,29.82,North,-999,1.0,5.0,20,0.00,,,0.00,942.00,VWS V14.01,2013-07-22 19:56:00,
2013-07-22 14:01:00,89.0,44.0,29.82,North,-999,0.0,0.0,21,0.00,,,0.00,939.00,VWS V14.01,2013-07-22 20:01:00,
2013-07-22 14:06:00,89.8,44.7,29.81,North,-999,0.0,2.0,21,0.00,,,0.00,935.00,VWS V14.01,2013-07-22 20:06:00,
2013-07-22 14:11:00,90.3,43.8,29.82,North,-999,0.0,0.0,20,0.00,,,0.00,933.00,VWS V14.01,2013-07-22 20:11:00,
2013-07-22 14:16:00,90.2,42.4,29.82,North,-999,0.0,5.0,19,0.00,,,0.00,932.00,VWS V14.01,2013-07-22 20:16:00,
2013-07-22 14:17:00,90.2,42.4,29.82,North,-999,0.0,5.0,19,0.00,,,0.00,930.00,VWS V14.01,2013-07-22 20:17:00,
2013-07-22 14:22:00,90.5,44.0,29.81,North,-999,3.0,4.0,20,0.00,,,0.00,935.00,VWS V14.01,2013-07-22 20:22:00,
2013-07-22 14:27:00,90.4,42.6,29.81,North,-999,0.0,6.0,19,0.00,,,0.00,921.00,VWS V14.01,2013-07-22 20:27:00,
2013-07-22 14:32:00,91.0,43.1,29.81,North,-999,0.0,3.0,19,0.00,,,0.00,912.00,VWS V14.01,2013-07-22 20:32:00,
2013-07-22 14:37:00,91.1,44.5,29.81,North,-999,2.0,4.0,20,0.00,,,0.00,911.00,VWS V14.01,2013-07-22 20:37:00,
2013-07-22 14:42:00,91.3,47.2,29.81,North,-999,4.0,5.0,22,0.00,,,0.00,902.00,VWS V14.01,2013-07-22 20:42:00,
2013-07-22 14:43:00,91.4,48.4,29.81,North,-999,5.0,5.0,23,0.00,,,0.00,898.00,VWS V14.01,2013-07-22 20:43:00,
2013-07-22 14:48:00,91.2,44.6,29.81,North,-999,9.0,9.0,20,0.00,,,0.00,891.00,VWS V14.01,2013-07-22 20:48:00,
2013-07-22 14:53:00,90.5,44.0,29.81,North,-999,3.0,10.0,20,0.00,,,0.00,882.00,VWS V14.01,2013-07-22 20:53:00,
2013-07-22 14:58:00,90.7,44.2,29.80,North,-999,5.0,7.0,20,0.00,,,0.00,881.00,VWS V14.01,2013-07-22 20:58:00,
2013-07-22 15:03:00,90.4,43.9,29.80,North,-999,7.0,8.0,20,0.00,,,0.00,868.00,VWS V14.01,2013-07-22 21:03:00,
2013-07-22 15:08:00,89.9,43.5,29.80,North,-999,4.0,4.0,20,0.00,,,0.00,856.00,VWS V14.01,2013-07-22 21:08:00,
2013-07-22 15:13:00,89.9,43.5,29.80,North,-999,1.0,7.0,20,0.00,,,0.00,853.00,VWS V14.01,2013-07-22 21:13:00,
2013-07-22 15:18:00,90.1,43.7,29.80,North,-999,4.0,6.0,20,0.00,,,0.00,846.00,VWS V14.01,2013-07-22 21:18:00,
2013-07-22 15:23:00,90.5,44.0,29.80,North,-999,1.0,6.0,20,0.00,,,0.00,840.00,VWS V14.01,2013-07-22 21:23:00,
2013-07-22 15:28:00,90.9,43.0,29.80,North,-999,0.0,3.0,19,0.00,,,0.00,831.00,VWS V14.01,2013-07-22 21:28:00,
2013-07-22 15:33:00,91.1,44.5,29.80,North,-999,0.0,3.0,20,0.00,,,0.00,819.00,VWS V14.01,2013-07-22 21:33:00,
2013-07-22 15:38:00,91.1,44.5,29.80,North,-999,0.0,3.0,20,0.00,,,0.00,809.00,VWS V14.01,2013-07-22 21:38:00,
2013-07-22 15:43:00,91.2,44.6,29.80,North,-999,3.0,6.0,20,0.00,,,0.00,798.00,VWS V14.01,2013-07-22 21:43:00,
2013-07-22 15:48:00,91.6,43.5,29.80,North,-999,2.0,2.0,19,0.00,,,0.00,793.00,VWS V14.01,2013-07-22 21:48:00,
2013-07-22 15:53:00,91.9,45.1,29.80,North,-999,0.0,5.0,20,0.00,,,0.00,784.00,VWS V14.01,2013-07-22 21:53:00,
2013-07-22 15:58:00,92.0,48.9,29.80,North,-999,3.0,3.0,23,0.00,,,0.00,768.00,VWS V14.01,2013-07-22 21:58:00,
2013-07-22 16:03:00,92.1,44.0,29.80,North,-999,0.0,5.0,19,0.00,,,0.00,756.00,VWS V14.01,2013-07-22 22:03:00,
2013-07-22 16:08:00,92.6,47.0,29.80,North,-999,4.0,4.0,21,0.00,,,0.00,744.00,VWS V14.01,2013-07-22 22:08:00,
2013-07-22 16:12:00,92.3,46.8,29.80,North,-999,0.0,7.0,21,0.00,,,0.00,731.00,VWS V14.01,2013-07-22 22:12:00,
2013-07-22 16:17:00,92.0,42.5,29.80,North,-999,1.0,2.0,18,0.00,,,0.00,721.00,VWS V14.01,2013-07-22 22:17:00,
2013-07-22 16:22:00,91.7,45.0,29.80,North,-999,4.0,7.0,20,0.00,,,0.00,710.00,VWS V14.01,2013-07-22 22:22:00,
2013-07-22 16:27:00,92.0,42.5,29.79,North,-999,6.0,8.0,18,0.00,,,0.00,696.00,VWS V14.01,2013-07-22 22:27:00,
2013-07-22 16:32:00,91.6,43.5,29.79,North,-999,13.0,17.0,19,0.00,,,0.00,687.00,VWS V14.01,2013-07-22 22:32:00,
2013-07-22 16:37:00,91.3,43.3,29.80,North,-999,7.0,14.0,19,0.00,,,0.00,673.00,VWS V14.01,2013-07-22 22:37:00,
2013-07-22 16:42:00,91.3,45.9,29.80,North,-999,5.0,14.0,21,0.00,,,0.00,664.00,VWS V14.01,2013-07-22 22:42:00,
2013-07-22 16:47:00,91.3,44.7,29.80,North,-999,11.0,14.0,20,0.00,,,0.00,650.00,VWS V14.01,2013-07-22 22:47:00,
2013-07-22 16:52:00,90.7,41.4,29.80,North,-999,9.0,14.0,18,0.00,,,0.00,642.00,VWS V14.01,2013-07-22 22:52:00,
2013-07-22 16:57:00,90.8,42.9,29.80,North,-999,13.0,13.0,19,0.00,,,0.00,624.00,VWS V14.01,2013-07-22 22:57:00,
2013-07-22 17:02:00,90.9,40.1,29.80,North,-999,10.0,13.0,17,0.00,,,0.00,613.00,VWS V14.01,2013-07-22 23:02:00,
2013-07-22 17:07:00,90.9,41.6,29.80,North,-999,10.0,11.0,18,0.00,,,0.00,594.00,VWS V14.01,2013-07-22 23:07:00,
2013-07-22 17:12:00,90.6,45.4,29.80,North,-999,13.0,14.0,21,0.00,,,0.00,582.00,VWS V14.01,2013-07-22 23:12:00,
2013-07-22 17:17:00,90.3,43.8,29.80,North,-999,7.0,10.0,20,0.00,,,0.00,568.00,VWS V14.01,2013-07-22 23:17:00,
2013-07-22 17:22:00,90.6,44.1,29.80,North,-999,4.0,12.0,20,0.00,,,0.00,552.00,VWS V14.01,2013-07-22 23:22:00,
2013-07-22 17:27:00,90.8,45.5,29.80,North,-999,6.0,9.0,21,0.00,,,0.00,541.00,VWS V14.01,2013-07-22 23:27:00,
2013-07-22 17:32:00,90.4,43.9,29.80,North,-999,6.0,13.0,20,0.00,,,0.00,526.00,VWS V14.01,2013-07-22 23:32:00,
2013-07-22 17:37:00,90.2,46.2,29.80,North,-999,5.0,9.0,22,0.00,,,0.00,508.00,VWS V14.01,2013-07-22 23:37:00,
2013-07-22 17:42:00,90.1,43.7,29.80,North,-999,11.0,13.0,20,0.00,,,0.00,494.00,VWS V14.01,2013-07-22 23:42:00,
2013-07-22 17:47:00,90.1,43.7,29.80,North,-999,6.0,6.0,20,0.00,,,0.00,478.00,VWS V14.01,2013-07-22 23:47:00,
2013-07-22 17:52:00,90.1,43.7,29.80,North,-999,9.0,12.0,20,0.00,,,0.00,466.00,VWS V14.01,2013-07-22 23:52:00,
2013-07-22 17:57:00,90.2,42.4,29.80,North,-999,5.0,8.0,19,0.00,,,0.00,448.00,VWS V14.01,2013-07-22 23:57:00,
2013-07-22 18:02:00,90.2,42.4,29.80,North,-999,5.0,10.0,19,0.00,,,0.00,432.00,VWS V14.01,2013-07-23 00:02:00,
2013-07-22 18:07:00,90.0,44.9,29.80,North,-999,7.0,7.0,21,0.00,,,0.00,418.00,VWS V14.01,2013-07-23 00:07:00,
2013-07-22 18:12:00,89.7,45.8,29.80,North,-999,3.0,12.0,22,0.00,,,0.00,403.00,VWS V14.01,2013-07-23 00:12:00,
2013-07-22 18:17:00,89.4,44.4,29.80,North,-999,6.0,6.0,21,0.00,,,0.00,387.00,VWS V14.01,2013-07-23 00:17:00,
2013-07-22 18:22:00,89.5,46.8,29.80,North,-999,2.0,10.0,23,0.00,,,0.00,373.00,VWS V14.01,2013-07-23 00:22:00,
2013-07-22 18:27:00,89.5,45.7,29.80,North,-999,7.0,10.0,22,0.00,,,0.00,353.00,VWS V14.01,2013-07-23 00:27:00,
2013-07-22 18:32:00,89.5,43.2,29.80,North,-999,6.0,14.0,20,0.00,,,0.00,338.00,VWS V14.01,2013-07-23 00:32:00,
2013-07-22 18:37:00,89.5,43.2,29.80,North,-999,3.0,14.0,20,0.00,,,0.00,325.00,VWS V14.01,2013-07-23 00:37:00,
2013-07-22 18:42:00,89.9,44.8,29.80,North,-999,4.0,7.0,21,0.00,,,0.00,309.00,VWS V14.01,2013-07-23 00:42:00,
2013-07-22 18:47:00,89.8,45.9,29.80,North,-999,4.0,9.0,22,0.00,,,0.00,287.00,VWS V14.01,2013-07-23 00:47:00,
2013-07-22 18:52:00,89.4,44.4,29.80,North,-999,5.0,12.0,21,0.00,,,0.00,271.00,VWS V14.01,2013-07-23 00:52:00,
2013-07-22 18:57:00,89.1,44.1,29.80,North,-999,9.0,12.0,21,0.00,,,0.00,260.00,VWS V14.01,2013-07-23 00:57:00,
2013-07-22 19:02:00,88.3,44.7,29.80,North,-999,8.0,13.0,22,0.00,,,0.00,248.00,VWS V14.01,2013-07-23 01:02:00,
2013-07-22 19:07:00,87.5,40.2,29.80,North,-999,5.0,15.0,19,0.00,,,0.00,230.00,VWS V14.01,2013-07-23 01:07:00,
2013-07-22 19:12:00,87.0,39.8,29.80,North,-999,5.0,15.0,19,0.00,,,0.00,211.00,VWS V14.01,2013-07-23 01:12:00,
2013-07-22 19:17:00,87.1,39.9,29.81,North,-999,9.0,16.0,19,0.00,,,0.00,195.00,VWS V14.01,2013-07-23 01:17:00,
2013-07-22 19:22:00,86.9,38.3,29.81,North,-999,7.0,13.0,18,0.00,,,0.00,179.00,VWS V14.01,2013-07-23 01:22:00,
2013-07-22 19:27:00,86.5,40.7,29.81,North,-999,9.0,13.0,20,0.00,,,0.00,160.00,VWS V14.01,2013-07-23 01:27:00,
2013-07-22 19:32:00,85.7,38.7,29.81,North,-999,8.0,13.0,19,0.00,,,0.00,142.00,VWS V14.01,2013-07-23 01:32:00,
2013-07-22 19:37:00,85.3,38.4,29.81,North,-999,6.0,15.0,19,0.00,,,0.00,125.00,VWS V14.01,2013-07-23 01:37:00,
2013-07-22 19:42:00,85.0,39.5,29.82,North,-999,13.0,13.0,20,0.00,,,0.00,107.00,VWS V14.01,2013-07-23 01:42:00,
2013-07-22 19:47:00,84.7,39.2,29.82,North,-999,7.0,13.0,20,0.00,,,0.00,93.00,VWS V14.01,2013-07-23 01:47:00,
2013-07-22 19:52:00,84.5,39.1,29.82,North,-999,6.0,11.0,20,0.00,,,0.00,77.00,VWS V14.01,2013-07-23 01:52:00,
2013-07-22 19:57:00,84.3,36.2,29.82,North,-999,7.0,11.0,18,0.00,,,0.00,62.00,VWS V14.01,2013-07-23 01:57:00,
2013-07-22 20:02:00,84.7,37.9,29.82,North,-999,9.0,10.0,19,0.00,,,0.00,53.00,VWS V14.01,2013-07-23 02:02:00,
2013-07-22 20:07:00,84.3,37.6,29.82,North,-999,5.0,10.0,19,0.00,,,0.00,39.00,VWS V14.01,2013-07-23 02:07:00,
2013-07-22 20:12:00,83.7,38.4,29.82,North,-999,4.0,9.0,20,0.00,,,0.00,33.00,VWS V14.01,2013-07-23 02:12:00,
2013-07-22 20:17:00,83.1,37.9,29.82,North,-999,6.0,10.0,20,0.00,,,0.00,25.00,VWS V14.01,2013-07-23 02:17:00,
2013-07-22 20:22:00,82.4,38.6,29.82,North,-999,5.0,7.0,21,0.00,,,0.00,19.00,VWS V14.01,2013-07-23 02:22:00,
2013-07-22 20:27:00,81.8,38.1,29.82,North,-999,5.0,7.0,21,0.00,,,0.00,18.00,VWS V14.01,2013-07-23 02:27:00,
2013-07-22 20:32:00,81.5,37.8,29.82,North,-999,5.0,6.0,21,0.00,,,0.00,16.00,VWS V14.01,2013-07-23 02:32:00,
2013-07-22 20:37:00,81.0,37.4,29.82,North,-999,2.0,6.0,21,0.00,,,0.00,11.00,VWS V14.01,2013-07-23 02:37:00,
2013-07-22 20:42:00,80.6,38.3,29.82,North,-999,2.0,7.0,22,0.00,,,0.00,7.00,VWS V14.01,2013-07-23 02:42:00,
2013-07-22 20:47:00,80.1,37.9,29.82,North,-999,2.0,7.0,22,0.00,,,0.00,5.00,VWS V14.01,2013-07-23 02:47:00,
2013-07-22 20:52:00,79.7,36.3,29.82,North,-999,0.0,3.0,21,0.00,,,0.00,0.00,VWS V14.01,2013-07-23 02:52:00,
2013-07-22 20:57:00,79.5,36.2,29.83,North,-999,2.0,3.0,21,0.00,,,0.00,0.00,VWS V14.01,2013-07-23 02:57:00,
2013-07-22 21:02:00,79.2,37.1,29.83,North,-999,6.0,6.0,22,0.00,,,0.00,0.00,VWS V14.01,2013-07-23 03:02:00,
2013-07-22 21:07:00,78.4,38.7,29.83,North,-999,10.0,10.0,24,0.00,,,0.00,0.00,VWS V14.01,2013-07-23 03:07:00,
2013-07-22 21:12:00,77.5,38.9,29.84,North,-999,6.0,12.0,25,0.00,,,0.00,0.00,VWS V14.01,2013-07-23 03:12:00,
2013-07-22 21:17:00,77.3,39.8,29.84,North,-999,7.0,12.0,26,0.00,,,0.00,0.00,VWS V14.01,2013-07-23 03:17:00,
2013-07-22 21:22:00,77.8,39.2,29.84,North,-999,9.0,13.0,25,0.00,,,0.00,0.00,VWS V14.01,2013-07-23 03:22:00,
2013-07-22 21:27:00,78.2,38.5,29.85,North,-999,9.0,14.0,24,0.00,,,0.00,0.00,VWS V14.01,2013-07-23 03:27:00,
2013-07-22 21:32:00,77.5,40.0,29.85,North,-999,4.0,10.0,26,0.00,,,0.00,0.00,VWS V14.01,2013-07-23 03:32:00,
2013-07-22 21:37:00,76.7,40.2,29.85,North,-999,6.0,10.0,27,0.00,,,0.00,0.00,VWS V14.01,2013-07-23 03:37:00,
2013-07-22 21:42:00,76.4,40.0,29.85,North,-999,6.0,9.0,27,0.00,,,0.00,0.00,VWS V14.01,2013-07-23 03:42:00,
2013-07-22 21:47:00,75.8,39.5,29.86,North,-999,9.0,11.0,27,0.00,,,0.00,0.00,VWS V14.01,2013-07-23 03:47:00,
2013-07-22 21:52:00,75.5,38.2,29.86,North,-999,10.0,11.0,26,0.00,,,0.00,0.00,VWS V14.01,2013-07-23 03:52:00,
2013-07-22 21:57:00,75.4,38.2,29.87,North,-999,4.0,11.0,26,0.00,,,0.00,0.00,VWS V14.01,2013-07-23 03:57:00,
2013-07-22 22:01:00,75.3,37.1,29.87,North,-999,5.0,9.0,25,0.00,,,0.00,0.00,VWS V14.01,2013-07-23 04:01:00,
2013-07-22 22:06:00,75.3,37.1,29.87,North,-999,3.0,9.0,25,0.00,,,0.00,0.00,VWS V14.01,2013-07-23 04:06:00,
2013-07-22 22:11:00,75.4,36.1,29.87,North,-999,5.0,8.0,24,0.00,,,0.00,0.00,VWS V14.01,2013-07-23 04:11:00,
2013-07-22 22:16:00,75.6,35.2,29.87,North,-999,6.0,9.0,23,0.00,,,0.00,0.00,VWS V14.01,2013-07-23 04:16:00,
2013-07-22 22:21:00,75.7,35.3,29.88,North,-999,6.0,7.0,23,0.00,,,0.00,0.00,VWS V14.01,2013-07-23 04:21:00,
2013-07-22 22:26:00,75.5,35.2,29.88,North,-999,6.0,10.0,23,0.00,,,0.00,0.00,VWS V14.01,2013-07-23 04:26:00,
2013-07-22 22:31:00,74.8,36.7,29.88,North,-999,6.0,9.0,25,0.00,,,0.00,0.00,VWS V14.01,2013-07-23 04:31:00,
2013-07-22 22:36:00,73.9,35.9,29.88,North,-999,6.0,10.0,25,0.00,,,0.00,0.00,VWS V14.01,2013-07-23 04:36:00,
2013-07-22 22:41:00,73.3,35.4,29.88,North,-999,5.0,10.0,25,0.00,,,0.00,0.00,VWS V14.01,2013-07-23 04:41:00,
2013-07-22 22:46:00,72.9,35.0,29.88,North,-999,6.0,10.0,25,0.00,,,0.00,0.00,VWS V14.01,2013-07-23 04:46:00,
2013-07-22 22:51:00,72.9,35.0,29.88,North,-999,9.0,11.0,25,0.00,,,0.00,0.00,VWS V14.01,2013-07-23 04:51:00,
2013-07-22 22:56:00,73.1,35.2,29.88,North,-999,6.0,11.0,25,0.00,,,0.00,0.00,VWS V14.01,2013-07-23 04:56:00,
2013-07-22 23:01:00,73.3,35.4,29.89,North,-999,11.0,13.0,25,0.00,,,0.00,0.00,VWS V14.01,2013-07-23 05:01:00,
2013-07-22 23:06:00,73.4,35.5,29.89,North,-999,10.0,13.0,25,0.00,,,0.00,0.00,VWS V14.01,2013-07-23 05:06:00,
2013-07-22 23:11:00,73.3,36.4,29.89,North,-999,4.0,10.0,26,0.00,,,0.00,0.00,VWS V14.01,2013-07-23 05:11:00,
2013-07-22 23:16:00,72.8,36.9,29.90,North,-999,2.0,10.0,27,0.00,,,0.00,0.00,VWS V14.01,2013-07-23 05:16:00,
2013-07-22 23:21:00,72.5,37.6,29.90,North,-999,2.0,6.0,28,0.00,,,0.00,0.00,VWS V14.01,2013-07-23 05:21:00,
2013-07-22 23:26:00,72.1,38.1,29.91,North,-999,3.0,6.0,29,0.00,,,0.00,0.00,VWS V14.01,2013-07-23 05:26:00,
2013-07-22 23:31:00,71.9,39.7,29.90,North,-999,7.0,7.0,31,0.00,,,0.00,0.00,VWS V14.01,2013-07-23 05:31:00,
2013-07-22 23:35:00,72.1,40.7,29.90,North,-999,6.0,10.0,32,0.00,,,0.00,0.00,VWS V14.01,2013-07-23 05:35:00,
2013-07-22 23:40:00,72.1,40.7,29.91,North,-999,4.0,11.0,32,0.00,,,0.00,0.00,VWS V14.01,2013-07-23 05:40:00,
2013-07-22 23:45:00,71.6,41.8,29.91,North,-999,5.0,11.0,34,0.00,,,0.00,0.00,VWS V14.01,2013-07-23 05:45:00,
2013-07-22 23:50:00,71.3,42.3,29.91,North,-999,2.0,5.0,35,0.00,,,0.00,0.00,VWS V14.01,2013-07-23 05:50:00,
2013-07-22 23:55:00,71.0,42.7,29.92,North,-999,2.0,5.0,36,0.00,,,0.00,0.00,VWS V14.01,2013-07-23 05:55:00,